Location: Keppel Henge
(44.7900°N, 80.9447°W)
Time: 11:15:44
(UTC-04:00)

Vanguard 1 Rocket - All Passes

Search period start: 23 October 2017 00:00
Search period end: 02 November 2017 00:00
Orbit: 655 x 4222 km, 34.3° (Epoch: 22 October)

Date Brightness Start Highest point End Pass type
(mag) Time Alt. Az. Time Alt. Az. Time Alt. Az.
23 Oct - 05:46:51 10° SSW 05:53:43 17° SSE 05:58:39 10° ESE visible
23 Oct - 08:12:15 10° SW 08:19:09 28° S 08:23:43 10° ESE daylight
23 Oct - 10:39:06 10° WSW 10:43:26 23° SSW 10:47:00 10° SE daylight
24 Oct - 04:36:35 10° S 04:42:05 13° SSE 04:46:27 10° SE visible
24 Oct - 06:59:56 10° SW 07:08:12 27° S 07:13:28 10° ESE visible
24 Oct - 09:27:08 10° WSW 09:32:58 29° S 09:37:08 10° SE daylight
24 Oct - 11:54:32 10° SW 11:56:52 14° SSW 11:59:06 10° S daylight
25 Oct - 05:47:39 10° SSW 05:56:55 23° SSE 06:02:54 10° ESE visible
25 Oct - 08:14:43 10° WSW 08:22:20 32° S 08:27:10 10° ESE daylight
25 Oct - 10:42:19 10° WSW 10:46:31 21° SSW 10:49:58 10° SSE daylight
26 Oct - 04:35:54 10° SSW 04:45:15 19° SSE 04:51:41 10° ESE visible
26 Oct - 07:01:56 10° SW 07:11:24 32° S 07:17:04 10° ESE visible
26 Oct - 09:30:02 10° WSW 09:36:07 29° SSW 09:40:21 10° SE daylight
27 Oct - 03:25:38 10° S 03:33:13 14° SSE 03:39:06 10° ESE visible
27 Oct - 05:49:00 10° SW 06:00:05 30° SSE 06:06:44 10° ESE visible
27 Oct - 08:17:19 10° WSW 08:25:30 35° S 08:30:32 10° ESE daylight
27 Oct - 10:45:39 10° WSW 10:49:33 18° SSW 10:52:46 10° SSE daylight
28 Oct - 04:36:20 10° SSW 04:48:23 26° SSE 04:55:57 10° ESE visible
28 Oct - 07:04:09 10° WSW 07:14:34 37° S 07:20:33 10° ESE visible
28 Oct - 09:33:01 10° WSW 09:39:12 28° SSW 09:43:30 10° SE daylight
29 Oct - 03:24:33 10° SSW 03:36:16 21° SSE 03:44:20 10° ESE visible
29 Oct - 05:50:42 10° SW 06:03:14 36° S 06:10:21 10° ESE visible
29 Oct - 08:20:01 10° WSW 08:28:38 36° S 08:33:50 10° ESE daylight
29 Oct - 10:49:12 10° WSW 10:52:29 15° SSW 10:55:15 10° S daylight
30 Oct - 02:14:44 10° S 02:23:49 15° SSE 02:30:58 10° ESE visible
30 Oct - 04:37:21 10° SW 04:51:27 32° SSE 04:59:47 10° ESE visible
30 Oct - 07:06:31 10° WSW 07:17:42 41° S 07:23:57 10° ESE visible
30 Oct - 09:36:04 10° WSW 09:42:14 26° SSW 09:46:30 10° SSE daylight
31 Oct - 03:24:35 10° SSW 03:39:16 27° SSE 03:48:38 10° ESE visible
31 Oct - 05:52:38 10° SW 06:06:20 41° S 06:13:50 10° ESE visible
31 Oct - 08:22:47 10° WSW 08:31:42 36° SSW 08:37:02 10° SE daylight
31 Oct - 10:53:18 10° WSW 10:55:19 12° SW 10:57:10 10° SSW daylight
01 Nov - 02:13:09 10° S 02:26:43 21° SSE 02:36:25 10° ESE visible
01 Nov - 04:38:44 10° SW 04:54:31 38° SSE 05:03:23 10° ESE visible
01 Nov - 07:09:00 10° WSW 07:20:47 43° S 07:27:15 10° ESE visible
01 Nov - 09:39:12 10° WSW 09:45:09 23° SSW 09:49:20 10° SSE daylight
